Location: Berduj
(43.0019°N, 22.3781°E)
Time: 22:26:12
(UTC+00:00)

Shenzhou-11 Module - Pass Details

Date: 19 October 2019
Orbit: 311 x 322 km, 42.8° (Epoch: 17 November)

Event Time Altitude Azimuth Distance (km) Brightness Sun altitude
Rises 17:25:25 0° 278° (W) 2,069 7.4 -19.6°
Reaches altitude 10° 17:27:26 10° 274° (W) 1,232 5.8 -20.0°
Enters shadow 17:29:30 41° 247° (WSW) 478 2.9 -20.3°
